						
							(Preview)
						
						
						
						
							
						
							
								Orbital elements:
2011 GD68                                                Earth MOID = 0.4014 AU
Epoch 2011 Feb. 8.0 TT = JDT 2455600.5                  MPC
M  12.76959              (2000.0)            P               Q
n   0.35865822     Peri.  331.92565     +0.36709402     -0.75138440
a   1.9619241      Node    91.70270     +0.92259118     +0.21894675
e   0.7351724      Incl.   33.26897     +0.11860645     +0.62248197
P   2.75           H   17.7           G   0... 
							 
							
						 
						
					
				 | 
				
					
						Blobrana
					 | 
				
				
					
						0
					 | 
				
				
				
					
						
					 | 
				
				
					
						
					 | 
				
			
		
			
			
				
				
					
						 
					 | 
				
				
				
					
						
					 | 
				
				
				
					
					
					Asteroid 2006 HF6
					
					
					
					
						
					
					
						
							(Preview)
						
						
						
						
							
						
							
								Asteroid 2006 HF6 will make a near-Earth flyby (0.013 AU) on the 19th April, 2011.Orbital elements:
2006 HF6                                                 Earth MOID = 0.0027 AU
Epoch 2006 Mar. 6.0 TT = JDT 2453800.5                  MPC
M   5.94793              (2000.0)            P               Q
n   0.58341866     Peri.   86.65334     -0.43973079     -0.89637331
a   1.4184559      Node    29.63715     +0.77234901     -0.4...                                                                      
							 
							
						 
						
					
				 | 
				
					
						Blobrana
					 | 
				
				
					
						0
					 | 
				
				
				
					
						
					 | 
				
				
					
						
					 | 
				
			
		
			
			
				
				
					
						 
					 | 
				
				
				
					
						
					 | 
				
				
				
					
					
					Asteroid 2010 UP
					
					
					
					
						
					
					
						
							(Preview)
						
						
						
						
							
						
							
								The 34 - 75 metre wide asteroid 2010 UP will make a close pass (6.9 lunar distances, 0.0176 AU), travelling at 5.46 km/second, to the Earth-Moon system on the 27th October, 2010 @ 02:46 UT.   See more  The Lunar Distance (LD), th...             
							 
							
						 
						
					
				 | 
				
					
						Blobrana
					 | 
				
				
					
						1
					 | 
				
				
				
					
						
					 | 
				
				
					
						
					 | 
				
			
		
			
			
				
				
					
						 
					 | 
				
				
				
					
						
					 | 
				
				
				
					
					
					Asteroid (260141) 2004 QT24
					
					
					
					
						
					
					
						
							(Preview)
						
						
						
						
							
						
							
								The 600 - 1300 metre wide asteroid 2004 QT24 will make a close pass (54.7 lunar distances, 0.1405 AU), travelling at 13.24 km/second, to the Earth-Moon system on the 17th April, 2011 @ 15:05 UT ±00:01.   See more  The Lunar Distance (LD), the distance between Earth and the Moon, equals 384,401 km, (or 0....  
							 
							
						 
						
					
				 | 
				
					
						Blobrana
					 | 
				
				
					
						0
					 | 
				
				
				
					
						
					 | 
				
				
					
						
					 |